Regional Weather Roundup
Issued by NWS

Home | Current Version | Previous Version | Graphics & Text | Print | Product List | Glossary On
Versions: 1 2 3 4 5 6 7 8 9 10 11 12 13 14 15 16 17 18 19 20 21 22 23 24 25 26 27 28 29 30 31 32 33 34 35 36 37 38 39 40 41 42 43 44 45 46 47 48 49 50
000
ASUS43 KLSX 242010
RWRMO

WEATHER SUMMARY FOR MISSOURI
NATIONAL WEATHER SERVICE SPRINGFIELD MO
300 PM CDT SUN JUL 24 2016

NOTE: "FAIR" INDICATES FEW OR NO CLOUDS BELOW 12,000 FEET WITH NO
       SIGNIFICANT WEATHER AND/OR OBSTRUCTIONS TO VISIBILITY.
       CURRENT SKY AND/OR WEATHER CONDITIONS ARE NOT AVAILABLE FOR
       CHILLICOTHE AND FARMINGTON.

MOZ001>031-035>038-043-044-053-054-242100-
...NORTHERN AND WESTERN MISSOURI...

CITY           SKY/WX    TMP DP  RH WIND       PRES   REMARKS
KANSAS CTY INT PTSUNNY   90  77  65 S6        29.94S HX 103
KANSAS C DTWN  PTSUNNY   94  73  50 NW5       29.91F HX 103
LEE`S SUMMIT   SUNNY     96  73  47 E6        29.94S HX 105
ST JOSEPH      CLOUDY    86  78  77 NW6       29.93S HX  98
CHILLICOTHE      N/A     92  78  63 W3        29.92R HX 107
KIRKSVILLE     PTSUNNY   89  74  60 W5        29.93R HX  98

$$
MOZ066>068-077>081-088>096-101>105-242100-
...SOUTHWEST MISSOURI...

CITY           SKY/WX    TMP DP  RH WIND       PRES   REMARKS
SPRINGFIELD    MOSUNNY   97  70  41 VRB7      29.97F HX 103
JOPLIN         SUNNY     96  74  48 SW8       29.95F HX 107
BRANSON        PTSUNNY   93  72  49 N7        29.99F HX 100

$$
MOZ032>034-039>042-045>050-055>058-069>072-242100-
...CENTRAL MISSOURI...

CITY           SKY/WX    TMP DP  RH WIND       PRES   REMARKS
COLUMBIA       CLOUDY    93  78  61 SW6       29.93F HX 108
JEFFERSON CITY MOSUNNY   96  73  47 W8        29.90F HX 105
ROLLA          SUNNY     94  75  54 SW10      29.95F HX 105
SEDALIA        SUNNY     96  76  52 S8        29.94F HX 109
WHITEMAN AFB   MOSUNNY   94  77  56 SW9       29.92S HX 108
OSAGE BEACH    SUNNY     95  77  55 VRB5      29.95F HX 109

$$
MOZ051-052-059>065-242100-
...EAST CENTRAL MISSOURI...

CITY           SKY/WX    TMP DP  RH WIND       PRES   REMARKS
ST LOUIS INTL  MOSUNNY   99  73  43 SW6       29.92F HX 109
SPIRIT OF STL  SUNNY     97  77  52 SW9       29.90F HX 112
ST CHARLES     MOSUNNY   96  79  57 SW8       29.90F HX 114

$$
MOZ072>076-082>087-097>100-106>115-242100-
...SOUTH CENTRAL AND SOUTHEAST MISSOURI...

CITY           SKY/WX    TMP DP  RH WIND       PRES   REMARKS
CAPE GIRARDEAU MOSUNNY   91  75  59 SW7       29.95F HX 101
FARMINGTON     PTSUNNY   92  78  63 SE7       29.97F HX 107
POPLAR BLUFF   PTSUNNY   90  77  65 SW3       29.95F HX 103
WEST PLAINS    LGT RAIN  86  75  69 SE8       30.01S HX  95

$$




USA.gov is the U.S. government's official web portal to all federal, state and local government web resources and services.